Flag for U.S.A. Weather past 2 weeks in Raleigh, North Carolina, U.S.A.

Now
41 °F

Overcast.


Feels Like: 41 °F
Forecast: 39 / 52 °F
Wind: No wind

Location: Raleigh-Durham International Airport

Current Time: Jan 26, 2015 at 2:28:11 AM

Latest Report: Jan 26, 2015 at 1:51 AM


Visibility: 10 mi

Pressure: 29.75 "Hg

Humidity: 74%

Dew point: 33 °F

Location of RaleighLocation

Historic Weather in Raleigh — Graph

°F

Raleigh temperature yesterday

Maximum temperature yesterday: 54 °F (at 1:51 PM)
Minimum temperature yesterday: 30 °F (at 5:51 AM)
Average temperature yesterday: 42 °F

Past Weeks' High & Low Weather Summary

 TemperatureHumidityPressure
High67 °F (Jan 20, 2:51 PM)93% (Jan 12, 5:51 AM)30.66 "Hg (Jan 12, 5:51 AM)
Low18 °F (Jan 11, 5:51 AM)17% (Jan 11, 2:51 PM)29.55 "Hg (Jan 24, 6:51 AM)
Average41 °F68%30.13 "Hg
* Reported Jan 11 12:51 AM — Jan 26 12:51 AM, Raleigh, Weather by CustomWeather, © 2014

Note: Actual official high and low records may vary slightly from our data, if they occured in-between our weather recording intervals... More about our weather records

Advertising

Raleigh weather history for previous 24 hours

 ConditionsComfort  
Time TempWeatherWind HumidityBarometerVisibility
12:51 AM
Jan 26
41 °FPassing clouds.5 mph74%29.76 "Hg10 mi
11:51 PM
Jan 25
43 °FPartly cloudy.5 mph68%29.80 "Hg10 mi
10:51 PM44 °FPartly cloudy.7 mph63%29.83 "Hg10 mi
9:51 PM44 °FHigh level clouds.6 mph65%29.84 "Hg10 mi
8:51 PM44 °FPassing clouds.3 mph63%29.83 "Hg10 mi
7:51 PM45 °FPassing clouds.5 mph60%29.85 "Hg10 mi
6:51 PM47 °FPassing clouds.5 mph56%29.85 "Hg10 mi
5:51 PM49 °FPassing clouds.5 mph52%29.83 "Hg10 mi
4:51 PM53 °FPassing clouds.8 mph45%29.82 "Hg10 mi
3:51 PM54 °FScattered clouds.10 mph43%29.84 "Hg10 mi
2:51 PM54 °FPassing clouds.8 mph43%29.86 "Hg10 mi
1:51 PM54 °FPassing clouds.7 mph45%29.87 "Hg10 mi
12:51 PM52 °FPassing clouds.8 mph47%29.91 "Hg10 mi
11:51 AM50 °FPassing clouds.8 mph50%29.93 "Hg10 mi
10:51 AM48 °FPassing clouds.6 mph54%29.96 "Hg10 mi
9:51 AM42 °FScattered clouds.3 mph65%29.96 "Hg10 mi
8:51 AM37 °FScattered clouds.5 mph70%29.95 "Hg10 mi
7:51 AM32 °FScattered clouds.No wind75%29.93 "Hg10 mi
6:51 AM30 °FPassing clouds.No wind82%29.91 "Hg9 mi
5:51 AM30 °FPassing clouds.3 mph79%29.90 "Hg10 mi
4:51 AM31 °FPassing clouds.3 mph79%29.89 "Hg10 mi
3:51 AM32 °FClear.No wind79%29.87 "Hg10 mi
2:51 AM34 °FClear.No wind70%29.88 "Hg10 mi
Weather by CustomWeather, © 2014

See weather overviewHow to use our weather pages